Terug naar catalogus

COSMOS 2509

ActiefNavigatiePO
NORAD 40922·PAYLOAD·🇷🇺 Russia

Gelanceerd Sep 23, 2015 vanaf Plesetsk Cosmodrome

Loading…

Volgende Passages (komende 24 uur)

TLE

VersSource: Space-Track

Epoch: Sep 14, 2026, 15:21 UTC

1 40922U 15050C   26257.63990762 -.00000051  00000-0 -44043-3 0  9998
2 40922  82.4923  22.5431 0014448 202.3861 157.6589 12.42886240497993

Volg COSMOS 2509 in realtime met AllMySat

Download on the App Store